Location: Allison Elementary School
(34.0784°N, 117.7317°W)
Time: 19:25:09
(UTC+00:00)

NOSS 2-3 (D) - Pass Details

Date: 15 November 2019
Orbit: 597 x 1615 km, 63.4° (Epoch: 03 December)

Event Time Altitude Azimuth Distance (km) Brightness Sun altitude
Rises 02:01:01 0° 209° (SSW) 2,828 7.6 -15.3°
Reaches altitude 10° 02:03:12 10° 210° (SSW) 1,923 6.7 -15.8°
Maximum altitude 02:07:25 90° 314° (NW) 622 3.5 -16.6°
Enters shadow 02:10:39 19° 30° (NNE) 1,546 5.2 -17.3°
